TimePST,TemperatureF,Dew PointF,Humidity,Sea Level PressureIn,VisibilityMPH,Wind Direction,Wind SpeedMPH,Gust SpeedMPH,PrecipitationIn,Events,Conditions,WindDirDegrees,DateUTC
12:16 AM,36.0,30.0,79,30.19,10.0,South,15.0,-,N/A,,Overcast,180,2013-12-13 08:16:00
12:33 AM,36.0,28.9,76,30.20,10.0,South,10.4,-,N/A,,Overcast,170,2013-12-13 08:33:00
12:56 AM,36.0,30.0,79,30.24,10.0,South,11.5,-,N/A,,Overcast,180,2013-12-13 08:56:00
1:56 AM,35.1,30.9,85,30.26,10.0,South,9.2,-,N/A,,Overcast,170,2013-12-13 09:56:00
2:03 AM,35.1,30.9,85,30.22,10.0,South,10.4,-,N/A,,Overcast,170,2013-12-13 10:03:00
2:56 AM,36.0,32.0,86,30.28,10.0,SSE,5.8,-,N/A,,Overcast,160,2013-12-13 10:56:00
3:56 AM,35.1,33.1,92,30.27,10.0,SSE,8.1,-,N/A,,Overcast,160,2013-12-13 11:56:00
4:56 AM,35.1,33.1,92,30.27,10.0,SSE,8.1,-,N/A,,Overcast,150,2013-12-13 12:56:00
5:37 AM,35.1,33.1,92,30.24,10.0,South,5.8,-,N/A,,Mostly Cloudy,180,2013-12-13 13:37:00
5:44 AM,36.0,33.1,89,30.25,10.0,South,6.9,-,N/A,,Mostly Cloudy,180,2013-12-13 13:44:00
5:56 AM,36.0,33.1,89,30.29,10.0,South,6.9,-,N/A,,Overcast,180,2013-12-13 13:56:00
6:04 AM,36.0,33.1,89,30.25,10.0,South,5.8,-,N/A,,Overcast,180,2013-12-13 14:04:00
6:12 AM,36.0,33.1,89,30.26,10.0,South,5.8,-,N/A,,Overcast,190,2013-12-13 14:12:00
6:19 AM,36.0,33.1,89,30.26,10.0,South,6.9,-,N/A,,Overcast,180,2013-12-13 14:19:00
6:56 AM,36.0,33.1,89,30.33,10.0,SSE,5.8,-,N/A,,Overcast,150,2013-12-13 14:56:00
7:56 AM,36.0,33.1,89,30.34,10.0,SE,10.4,-,N/A,,Overcast,140,2013-12-13 15:56:00
8:34 AM,36.0,34.0,93,30.30,10.0,SE,9.2,-,N/A,,Overcast,130,2013-12-13 16:34:00
8:56 AM,37.0,34.0,89,30.36,10.0,SE,8.1,-,N/A,,Overcast,130,2013-12-13 16:56:00
9:56 AM,37.9,35.1,89,30.38,10.0,SE,8.1,-,N/A,,Overcast,130,2013-12-13 17:56:00
10:15 AM,39.0,35.1,86,30.33,10.0,ESE,10.4,-,N/A,,Overcast,120,2013-12-13 18:15:00
10:24 AM,39.9,35.1,83,30.33,10.0,ESE,6.9,-,N/A,,Overcast,120,2013-12-13 18:24:00
10:51 AM,39.2,35.6,87,30.34,10.0,ESE,6.9,-,N/A,,Scattered Clouds,110,2013-12-13 18:51:00
10:56 AM,39.9,35.1,83,30.39,10.0,East,5.8,-,N/A,,Partly Cloudy,100,2013-12-13 18:56:00
11:56 AM,42.1,35.1,76,30.36,10.0,SSE,6.9,-,N/A,,Clear,150,2013-12-13 19:56:00
12:56 PM,43.0,35.1,74,30.35,10.0,SE,9.2,-,N/A,,Clear,130,2013-12-13 20:56:00
1:56 PM,44.1,35.1,71,30.35,10.0,ESE,6.9,-,N/A,,Clear,120,2013-12-13 21:56:00
2:56 PM,43.0,34.0,71,30.35,10.0,Calm,Calm,-,N/A,,Clear,0,2013-12-13 22:56:00
3:56 PM,41.0,33.1,73,30.38,10.0,Calm,Calm,-,N/A,,Clear,0,2013-12-13 23:56:00
4:56 PM,39.9,33.1,77,30.38,10.0,East,3.5,-,N/A,,Clear,90,2013-12-14 00:56:00
5:56 PM,41.0,33.1,73,30.39,10.0,Calm,Calm,-,N/A,,Clear,0,2013-12-14 01:56:00
6:56 PM,39.9,33.1,77,30.39,10.0,East,4.6,-,N/A,,Clear,90,2013-12-14 02:56:00
7:56 PM,39.0,33.1,79,30.38,10.0,SE,12.7,-,N/A,,Clear,130,2013-12-14 03:56:00
8:56 PM,37.9,33.1,83,30.39,10.0,ESE,12.7,-,N/A,,Clear,120,2013-12-14 04:56:00
9:56 PM,37.9,34.0,86,30.39,10.0,ESE,12.7,-,N/A,,Clear,120,2013-12-14 05:56:00
10:56 PM,39.9,34.0,79,30.38,10.0,SE,12.7,-,N/A,,Clear,130,2013-12-14 06:56:00
11:56 PM,39.0,32.0,76,30.39,10.0,SE,10.4,-,N/A,,Clear,130,2013-12-14 07:56:00